Time,TemperatureF,DewpointF,PressureIn,WindDirection,WindDirectionDegrees,WindSpeedMPH,WindSpeedGustMPH,Humidity,HourlyPrecipIn,Conditions,Clouds,dailyrainin,SoftwareType,DateUTC
2013-05-19 10:00:00,65.7,63.0,28.59,East,92,2.7,7.6,91,0.39,,---,0.39,VWS V13.00,2013-05-19 15:00:00,
2013-05-19 10:20:00,65.3,62.3,28.53,ESE,116,3.1,5.8,90,0.39,,---,0.39,VWS V13.00,2013-05-19 15:20:00,
2013-05-19 10:40:00,66.4,63.0,28.53,SE,127,3.1,6.3,89,0.39,,---,0.39,VWS V13.00,2013-05-19 15:40:00,
2013-05-19 11:00:00,67.5,63.8,28.53,ESE,106,3.6,8.1,88,0.39,,---,0.39,VWS V13.00,2013-05-19 16:00:00,
2013-05-19 11:20:00,68.9,63.9,28.53,SE,138,5.4,7.6,84,0.00,,---,0.39,VWS V13.00,2013-05-19 16:20:00,
2013-05-19 11:40:00,69.1,63.0,28.56,SE,140,4.0,8.3,81,0.00,,---,0.39,VWS V13.00,2013-05-19 16:40:00,
2013-05-19 12:00:00,70.9,63.7,28.56,South,188,3.6,8.3,78,0.00,,---,0.39,VWS V13.00,2013-05-19 17:00:00,
2013-05-19 12:20:00,72.9,64.1,28.53,South,191,3.6,8.7,74,0.00,,---,0.39,VWS V13.00,2013-05-19 17:20:00,
2013-05-19 12:40:00,73.9,64.0,28.53,SSE,165,4.9,9.6,71,0.00,,---,0.39,VWS V13.00,2013-05-19 17:40:00,
2013-05-19 13:00:00,74.5,64.1,28.53,SSE,160,2.7,11.0,70,0.00,,---,0.39,VWS V13.00,2013-05-19 18:00:00,
2013-05-19 13:20:00,76.6,64.4,28.53,South,189,5.8,10.1,66,0.00,,---,0.39,VWS V13.00,2013-05-19 18:20:00,
2013-05-19 13:40:00,77.5,64.4,28.53,SE,141,3.6,8.1,64,0.00,,---,0.39,VWS V13.00,2013-05-19 18:40:00,
2013-05-19 14:00:00,78.3,64.2,28.50,SSE,157,7.6,10.1,62,0.00,,---,0.39,VWS V13.00,2013-05-19 19:00:00,
2013-05-19 14:20:00,79.7,64.6,28.50,SSE,164,4.9,8.7,60,0.00,,---,0.39,VWS V13.00,2013-05-19 19:20:00,
2013-05-19 14:40:00,77.9,63.4,28.50,South,174,2.7,5.8,61,0.00,,---,0.39,VWS V13.00,2013-05-19 19:40:00,
2013-05-19 15:00:00,75.7,61.8,28.53,SSW,203,2.7,5.4,62,0.00,,---,0.39,VWS V13.00,2013-05-19 20:00:00,
2013-05-19 15:20:00,72.3,61.6,28.53,WNW,286,0.0,7.2,69,0.04,,---,0.43,VWS V13.00,2013-05-19 20:20:00,
2013-05-19 15:40:00,70.2,63.3,28.47,East,90,3.6,4.0,79,0.04,,---,0.43,VWS V13.00,2013-05-19 20:40:00,
2013-05-19 16:00:00,70.0,63.9,28.47,West,273,3.6,7.2,81,0.04,,---,0.43,VWS V13.00,2013-05-19 21:00:00,
2013-05-19 16:20:00,75.2,67.1,28.47,South,191,0.0,8.1,76,0.04,,---,0.43,VWS V13.00,2013-05-19 21:20:00,
2013-05-19 16:40:00,76.1,65.2,28.47,SSE,168,0.0,5.8,69,0.00,,---,0.43,VWS V13.00,2013-05-19 21:40:00,
2013-05-19 17:00:00,73.6,62.8,28.47,SSE,161,0.0,3.1,69,0.00,,---,0.43,VWS V13.00,2013-05-19 22:00:00,
2013-05-19 17:20:00,71.4,61.5,28.44,ESE,107,0.0,4.0,71,0.00,,---,0.43,VWS V13.00,2013-05-19 22:20:00,
2013-05-19 17:40:00,77.2,64.5,28.41,ESE,102,2.7,4.0,65,0.00,,---,0.43,VWS V13.00,2013-05-19 22:40:00,
2013-05-19 18:00:00,77.9,60.5,28.44,East,89,2.2,5.8,55,0.00,,---,0.43,VWS V13.00,2013-05-19 23:00:00,
2013-05-19 18:20:00,74.8,59.6,28.41,East,93,2.7,5.4,59,0.00,,---,0.43,VWS V13.00,2013-05-19 23:20:00,
2013-05-19 18:40:00,71.4,58.6,28.44,ESE,122,3.1,6.3,64,0.00,,---,0.43,VWS V13.00,2013-05-19 23:40:00,
2013-05-19 19:00:00,69.8,58.8,28.44,SSE,167,4.9,6.3,68,0.00,,---,0.43,VWS V13.00,2013-05-20 00:00:00,
2013-05-19 19:20:00,67.8,57.7,28.41,SSE,166,3.6,11.9,70,0.00,,---,0.43,VWS V13.00,2013-05-20 00:20:00,
2013-05-19 19:40:00,66.0,56.0,28.44,SSE,162,3.6,12.8,70,0.00,,---,0.43,VWS V13.00,2013-05-20 00:40:00,
2013-05-19 20:00:00,65.1,55.5,28.44,SSE,163,3.1,10.5,71,0.00,,---,0.43,VWS V13.00,2013-05-20 01:00:00,
2013-05-19 20:20:00,64.0,54.1,28.41,SSE,163,6.3,15.4,70,0.00,,---,0.43,VWS V13.00,2013-05-20 01:20:00,
2013-05-19 20:40:00,63.1,53.6,28.41,SE,143,4.9,12.8,71,0.00,,---,0.43,VWS V13.00,2013-05-20 01:40:00,
2013-05-19 21:00:00,62.6,53.5,28.41,South,175,4.0,10.1,72,0.00,,---,0.43,VWS V13.00,2013-05-20 02:00:00,
2013-05-19 21:20:00,62.1,53.3,28.44,WNW,284,4.0,4.0,73,0.00,,---,0.43,VWS V13.00,2013-05-20 02:20:00,
2013-05-19 21:40:00,62.6,51.9,28.50,West,259,12.3,17.4,68,0.00,,---,0.43,VWS V13.00,2013-05-20 02:40:00,
2013-05-19 22:00:00,61.9,51.6,28.50,WNW,300,6.3,14.1,69,0.00,,---,0.43,VWS V13.00,2013-05-20 03:00:00,
2013-05-19 22:20:00,60.6,52.3,28.50,West,279,4.0,11.0,74,0.00,,---,0.43,VWS V13.00,2013-05-20 03:20:00,
2013-05-19 22:40:00,60.3,53.7,28.50,WNW,294,0.0,6.3,79,0.00,,---,0.43,VWS V13.00,2013-05-20 03:40:00,
2013-05-19 23:00:00,59.7,54.2,28.47,East,91,3.1,4.0,82,0.00,,---,0.43,VWS V13.00,2013-05-20 04:00:00,
2013-05-19 23:20:00,59.9,54.7,28.47,East,91,3.6,3.6,83,0.00,,---,0.43,VWS V13.00,2013-05-20 04:20:00,